Dewpoint
71 72 72 73 73 73 74 74 74 74 74 75 75 76 76 76 75 76 75 75 75 75 75 76 76 75 76 76 75 75 75 75 75 75 75 74 74 74 74 74 74 75 75 75 76 75 75 75 75 75 75 74 75 75 75 74 74 75 75 75 75 75 75 75 75 75 75 74 75 74 74 74 75 75 75 75 75 76 76 76 75 74 74 74 75
71 72 72 73 73 73 73 74 74 74 74 75 75 76 76 76 76 75 75 75 75 75 75 76 75 76 76 75 75 75 75 75 74 74 74 74 74 74 74 74 75 75 75 75 75 75 75 75 75 75 75 75 75 74 74 73 74 74 74 75 75 75 75 75 75 75 75 74 75 75 74 74 75 74 75 75 75 75 75 75 75 74 74 74 75
72 73 72 74 73 73 74 74 74 74 74 74 75 76 76 76 75 75 75 75 75 75 75 75 75 76 76 76 75 76 75 75 75 74 75 74 74 75 75 74 75 75 75 75 75 75 75 75 75 75 75 74 74 74 74 73 73 73 73 74 75 75 75 75 74 75 75 74 74 74 74 75 75 74 75 74 75 75 75 75 75 74 73 74 74
72 73 74 74 74 74 73 74 74 74 74 74 75 75 76 76 75 75 75 75 75 75 75 75 75 75 75 75 76 75 75 75 75 75 75 75 75 75 75 75 75 74 75 75 75 75 75 75 74 75 74 75 75 74 74 74 73 74 74 75 75 75 75 75 75 75 75 75 75 75 75 74 74 75 74 75 75 75 75 75 75 74 74 74 74
73 74 73 73 74 74 73 74 75 75 74 75 74 75 76 75 75 75 75 75 75 75 75 75 75 75 75 75 75 75 75 75 75 75 75 75 74 75 76 76 75 75 75 75 75 75 75 75 75 75 75 75 75 75 74 75 74 74 74 74 74 75 75 75 75 75 74 75 75 75 74 74 75 74 75 75 75 74 74 74 74 74 74 74 74
73 74 74 73 74 74 74 75 75 75 75 75 75 75 75 75 75 75 75 74 74 74 75 75 75 75 74 74 75 75 75 75 75 75 75 75 75 75 75 76 75 76 75 75 75 75 75 75 75 75 75 75 75 75 75 75 75 75 75 75 75 75 74 74 74 75 75 76 75 74 74 74 74 74 75 75 75 74 74 74 74 74 74 74 74
74 74 75 75 75 75 75 75 75 75 75 75 74 74 74 74 74 74 74 74 73 73 74 74 75 75 74 74 74 75 75 75 74 75 75 75 74 75 75 75 75 76 75 75 75 75 75 74 74 74 75 75 75 74 74 74 74 74 74 74 74 74 75 75 75 76 76 74 74 74 74 74 74 74 74 75 74 74 74 74 74 74 74 74 73
75 75 74 75 75 76 76 75 75 75 75 74 74 74 74 74 74 75 73 74 73 73 73 73 74 75 75 75 75 75 75 74 74 74 74 75 74 74 74 74 74 75 75 75 75 75 74 74 75 75 75 75 74 74 75 75 74 75 74 74 74 75 75 75 76 76 75 74 74 74 74 74 74 74 74 74 74 74 74 74 74 74 74 74 74
74 75 75 75 75 76 75 75 75 75 74 74 74 74 74 74 74 73 74 73 74 74 74 73 74 74 74 74 75 75 75 74 74 74 74 74 73 73 75 75 74 75 75 74 75 75 74 75 75 74 74 74 74 74 74 74 74 74 74 73 74 74 75 75 75 75 74 74 74 74 74 74 73 74 74 73 73 73 74 74 74 73 73 73 74
74 74 74 74 75 76 75 75 75 75 74 74 74 74 74 74 74 74 74 74 74 74 74 74 74 74 74 74 74 75 74 73 73 73 73 74 74 74 74 74 74 75 75 75 75 75 75 75 75 74 74 74 74 74 74 74 74 74 74 74 75 75 75 75 75 75 73 74 74 74 75 74 73 73 72 73 73 73 73 74 73 73 73 74 73
74 74 74 74 75 75 75 75 75 74 74 74 74 74 74 73 72 74 74 74 74 74 75 75 74 74 74 74 74 74 74 74 73 73 73 74 75 76 75 74 74 75 75 75 75 74 74 75 74 74 74 74 73 74 74 74 73 74 74 74 74 75 75 75 75 73 73 73 73 74 74 74 73 74 73 73 73 73 73 73 73 73 73 74 73
74 74 74 75 76 75 75 75 75 74 74 74 74 73 73 73 73 73 74 74 74 74 73 73 74 74 74 74 73 74 74 74 74 73 73 74 76 75 75 75 74 74 75 74 74 74 74 74 74 74 75 74 74 74 74 73 74 74 74 74 74 75 75 75 73 73 73 73 74 73 73 73 74 72 73 73 73 73 73 73 73 73 73 73 73
74 74 75 75 75 74 75 76 75 74 74 74 74 73 73 73 72 73 73 74 74 73 73 74 74 74 73 74 73 73 73 74 74 74 74 74 75 75 75 75 75 75 75 74 74 73 73 73 73 74 73 74 74 75 74 74 74 74 74 74 74 75 75 75 73 73 73 73 74 73 73 74 74 75 73 73 73 73 73 73 73 73 73 73 73
74 74 74 74 75 75 75 75 75 75 74 74 74 73 73 72 73 73 73 73 74 74 74 74 74 73 73 73 74 74 73 74 74 74 74 74 74 74 74 75 75 75 74 74 73 72 72 73 73 74 74 74 74 74 74 73 74 74 74 74 74 74 75 75 74 73 74 74 74 73 74 75 75 75 73 73 73 72 72 72 72 73 73 73 72
74 74 74 74 74 75 74 75 75 75 74 74 74 74 73 73 73 73 73 73 73 73 73 73 73 72 73 73 73 73 73 74 74 74 74 74 74 74 75 75 75 75 74 74 73 73 73 74 73 75 74 74 74 74 74 74 74 74 74 74 74 74 75 73 72 73 73 74 74 73 73 74 73 73 72 72 72 72 72 72 72 72 71 71 71
74 74 75 74 75 75 76 74 75 74 74 74 73 73 73 73 73 73 73 73 74 73 73 73 72 74 74 73 73 73 74 74 75 75 74 74 75 75 75 75 74 74 74 74 74 74 74 75 74 75 74 74 74 74 74 74 74 74 74 74 73 74 75 74 73 73 73 73 74 74 73 74 72 72 71 71 70 70 70 70 70 69 69 69 69
74 75 74 74 74 74 74 75 75 74 73 74 74 73 74 74 73 73 73 74 74 73 73 73 73 73 73 73 73 74 75 74 75 75 75 75 75 75 74 74 74 74 74 75 74 74 75 75 75 74 74 74 74 74 74 73 73 74 74 74 74 73 75 75 73 73 73 73 73 74 73 74 72 71 71 71 70 70 70 69 69 70 70 70 70
74 74 73 73 73 75 74 75 74 74 74 74 74 74 73 73 72 72 73 73 73 74 72 73 73 73 73 73 74 74 75 75 75 75 75 75 75 75 74 74 74 74 74 75 74 75 75 75 75 74 74 74 74 73 73 73 73 73 73 74 73 73 75 75 72 73 73 74 73 75 74 73 72 71 71 70 70 70 70 70 70 70 70 71 71
73 73 73 73 73 73 73 74 74 73 73 73 74 74 73 73 73 72 73 73 74 74 73 74 73 73 74 73 74 74 74 75 75 74 75 75 75 75 75 75 74 74 74 74 74 74 75 75 75 75 75 75 74 74 74 73 73 72 72 73 73 73 74 75 72 72 74 75 73 74 73 74 72 72 71 71 70 70 70 70 70 70 70 69 70
73 73 72 73 73 73 73 73 74 73 73 74 74 73 74 73 73 71 73 73 73 73 73 73 73 73 74 74 74 75 74 74 75 75 75 75 75 75 75 74 74 75 75 75 75 75 75 75 74 75 75 75 75 76 76 76 75 74 73 73 73 73 75 72 72 72 74 73 74 73 73 74 73 72 72 71 71 70 70 70 70 71 71 71 71
72 72 72 72 73 73 73 73 74 73 73 73 73 73 74 73 73 73 72 73 73 74 74 74 74 74 74 74 74 75 75 75 75 75 75 76 75 74 74 75 75 75 75 75 75 75 74 74 74 74 75 74 75 77 76 75 75 74 74 74 75 76 73 72 71 73 73 73 74 73 73 74 73 72 72 71 71 71 71 71 71 71 72 72 72
71 72 72 72 72 73 73 73 73 74 73 73 73 74 75 73 73 74 73 73 74 74 73 74 74 74 74 74 75 75 74 74 76 76 77 76 75 74 74 75 75 75 75 75 74 74 74 74 74 74 75 76 77 76 76 77 77 77 76 77 74 74 73 71 71 73 73 73 74 73 74 74 73 73 73 72 72 72 72 72 71 72 72 72 72
71 71 72 72 72 73 73 73 73 73 73 74 74 73 73 74 74 73 73 73 74 73 74 73 73 73 74 74 74 73 74 75 76 76 77 75 77 74 75 75 75 76 75 75 75 75 76 76 76 76 77 77 76 76 76 75 75 77 77 74 74 74 71 70 71 72 73 72 74 74 74 74 74 74 73 73 73 72 72 72 71 72 72 73 73
70 71 71 73 73 73 73 74 73 73 73 73 73 73 73 74 73 73 73 73 74 73 73 73 73 73 73 73 73 74 74 74 77 75 77 75 75 77 76 77 77 77 77 76 76 76 76 77 76 76 76 76 75 75 75 75 75 75 75 74 74 74 70 70 71 72 73 73 73 74 74 74 74 74 73 73 73 73 72 72 73 73 73 73 73
71 72 72 72 73 73 73 73 73 74 74 74 73 73 73 74 74 73 73 73 73 73 73 73 74 73 73 74 74 74 74 74 74 74 74 74 74 74 74 74 74 73 77 74 74 74 74 73 73 74 74 74 74 74 74 74 75 74 74 74 73 73 70 71 71 72 72 73 74 74 74 74 74 74 73 73 73 73 73 74 73 73 73 73 73
72 71 71 72 73 73 73 73 74 73 73 73 73 74 73 73 73 73 73 73 73 73 73 74 74 73 74 74 74 73 74 74 73 74 73 73 73 73 73 73 73 73 74 74 74 74 74 74 74 74 73 74 73 73 73 75 74 73 74 74 73 73 71 71 71 72 72 72 74 74 74 75 75 74 74 74 74 73 74 74 74 74 74 74 74
71 71 72 72 73 73 73 73 73 73 73 74 74 73 73 73 73 73 73 73 73 73 73 73 73 73 74 75 73 73 73 73 73 72 73 73 73 73 73 73 73 73 74 74 74 74 74 74 74 74 74 73 73 73 74 73 74 73 73 73 73 72 71 70 71 72 72 72 73 74 75 75 75 75 75 75 74 74 74 74 74 74 74 74 74
71 71 71 73 73 73 73 73 73 73 73 73 73 73 73 73 74 75 73 75 74 73 73 73 73 73 74 75 74 73 73 73 72 72 73 73 73 73 73 73 73 73 74 75 74 74 74 74 74 74 74 74 73 73 73 72 72 73 72 72 72 71 70 70 71 71 72 72 73 74 75 75 76 76 76 76 76 75 75 75 75 75 75 75 75
70 71 71 72 73 74 73 73 73 73 73 73 73 73 73 73 74 73 73 75 73 73 73 74 73 74 74 75 74 73 73 72 72 72 72 73 73 73 73 73 73 73 74 74 74 74 74 73 73 72 72 73 72 72 72 72 72 72 71 71 70 70 69 70 70 70 71 72 72 73 75 76 76 76 76 76 76 76 76 76 76 76 76 76 76
70 71 71 72 73 74 73 73 73 73 73 73 73 73 73 73 73 73 73 75 73 73 74 73 73 73 73 74 74 73 73 73 72 72 72 73 73 73 73 73 73 73 73 73 74 74 74 73 72 72 71 72 72 72 74 73 70 69 70 70 68 67 70 70 70 70 71 72 72 73 75 75 76 76 76 76 76 76 76 76 76 77 77 77 77
70 70 71 72 73 73 73 74 74 74 73 73 73 73 73 73 74 73 73 74 73 75 74 73 73 73 73 74 74 75 73 73 72 72 72 73 73 73 73 73 73 73 73 73 74 74 73 73 73 73 74 74 74 74 74 73 72 67 67 67 66 69 69 70 69 69 69 71 71 72 72 74 75 77 77 77 76 77 77 77 77 77 77 77 77
70 70 71 72 73 73 73 73 74 74 74 73 74 73 73 73 74 73 73 74 75 73 73 73 75 73 73 73 73 73 75 73 72 72 73 73 73 73 73 73 73 74 76 74 76 76 76 76 76 76 76 75 75 74 73 72 72 68 67 66 67 69 69 70 68 68 68 69 71 71 72 72 74 75 77 77 77 77 77 77 78 78 78 77 77
70 70 71 73 72 72 72 73 73 74 73 73 73 73 73 73 74 73 74 74 74 73 72 73 73 73 73 73 73 73 75 74 73 73 74 73 73 73 72 74 74 75 76 77 76 75 75 74 74 75 74 75 73 72 73 73 71 68 66 65 67 68 69 70 70 68 67 67 70 70 71 72 73 74 75 77 78 78 78 78 78 78 78 79 79
69 70 71 72 72 72 72 72 73 73 73 72 73 72 73 73 74 73 75 73 73 72 73 72 74 74 74 73 73 74 75 74 73 73 73 73 73 73 73 74 75 76 77 77 75 75 73 73 73 73 74 74 72 72 71 68 67 66 65 64 66 68 69 69 69 69 68 67 68 70 70 70 71 73 74 75 76 77 78 78 79 79 79 79 79
70 70 71 71 72 71 71 71 73 72 74 72 73 72 72 73 73 72 73 73 72 72 72 73 73 73 73 73 73 74 75 74 73 73 73 73 73 73 74 74 75 78 75 75 75 74 73 73 74 73 73 73 73 73 70 68 66 65 67 67 65 66 69 68 69 69 69 69 70 68 69 70 70 71 72 73 74 75 75 76 77 79 79 79 79
69 69 70 71 70 70 72 71 72 72 73 72 72 72 72 72 72 74 72 72 72 72 73 73 74 74 74 73 74 74 75 74 74 74 73 74 73 73 74 75 77 76 75 75 76 75 74 74 74 73 73 72 73 70 69 69 68 67 67 68 67 69 68 69 69 68 67 69 69 69 70 70 71 71 73 73 73 73 74 76 76 77 79 79 79
69 69 70 70 69 70 71 70 71 71 72 71 71 71 71 71 72 72 71 72 71 72 73 74 74 74 74 73 74 75 76 74 75 74 73 73 73 74 74 76 77 76 76 74 74 75 74 74 73 75 74 73 72 70 70 69 66 65 67 68 67 70 68 69 68 67 66 68 69 68 69 71 72 73 75 74 74 74 74 75 76 77 77 78 78
69 69 70 70 69 70 70 70 71 71 71 71 71 70 71 71 71 72 74 71 71 72 73 74 74 74 74 74 75 77 77 76 75 74 73 74 74 74 75 76 77 76 75 73 73 74 74 74 73 74 75 73 72 71 70 68 65 63 66 66 70 69 69 68 68 71 70 67 69 69 69 69 70 70 71 73 73 75 75 75 76 76 77 78 79
69 69 70 70 69 70 71 72 71 71 71 71 72 71 71 71 71 71 71 71 71 71 73 73 73 74 74 75 77 78 78 76 75 75 74 77 74 76 76 76 77 74 73 73 74 75 76 74 73 74 74 74 72 71 72 70 66 66 66 67 69 71 72 69 71 69 69 67 66 70 67 70 68 69 71 72 73 75 75 76 76 75 75 74 77
69 69 70 69 69 69 70 71 71 71 71 71 72 70 70 71 70 70 70 71 70 72 72 73 73 74 75 76 77 76 77 76 76 75 75 75 75 76 76 77 76 73 73 73 74 75 76 75 74 74 73 72 72 71 71 70 67 67 70 67 69 71 74 75 72 70 71 70 69 70 68 68 69 68 67 69 73 73 74 75 76 76 75 73 75
68 69 68 68 68 69 70 70 70 71 71 70 70 69 69 69 69 68 69 69 70 71 72 72 73 73 75 76 77 77 77 77 76 75 75 77 76 76 76 76 76 76 75 75 75 76 77 76 75 74 73 71 70 72 71 68 67 67 68 66 68 70 72 75 70 67 66 67 68 69 69 69 68 68 69 70 71 70 70 73 74 75 75 76 75
67 68 68 68 68 68 69 69 70 70 70 70 70 70 69 69 68 69 68 69 71 72 71 72 72 73 75 76 77 76 77 77 78 76 76 76 75 76 75 75 75 75 78 76 76 78 75 74 74 74 73 72 71 72 71 64 66 64 65 66 68 68 72 69 67 66 68 69 69 69 68 66 65 66 69 73 71 70 68 71 75 74 75 75 75
67 67 67 68 68 68 69 70 70 70 70 70 70 70 70 70 69 69 69 69 70 71 71 73 74 73 75 75 77 76 76 77 78 78 76 76 75 75 75 74 75 77 76 74 73 74 75 73 74 74 72 71 73 73 73 67 67 69 67 64 64 64 70 66 67 68 67 68 67 64 68 65 64 66 70 70 71 71 68 70 72 74 74 75 75
67 67 67 67 67 69 69 70 70 70 70 71 72 70 70 70 70 70 71 71 71 73 73 74 73 74 74 75 76 76 76 76 77 78 77 76 76 75 75 76 76 77 75 74 74 74 75 74 73 74 71 69 69 70 74 71 69 67 66 66 62 61 62 63 64 66 67 67 67 63 66 64 64 64 69 69 65 69 70 71 71 73 74 75 75
66 66 66 67 67 68 69 70 71 70 70 73 72 72 73 72 73 73 74 72 72 72 72 72 73 74 74 74 74 76 76 76 77 78 78 75 76 76 76 76 76 75 75 74 74 74 74 74 74 74 72 70 69 70 71 72 70 71 67 64 65 63 61 62 59 67 63 68 66 66 70 66 65 68 68 67 69 69 68 68 71 73 74 74 74
65 66 66 67 67 68 70 71 71 71 71 73 72 73 72 71 71 70 70 69 69 70 70 70 71 72 73 74 74 75 76 76 76 77 78 76 76 76 75 75 75 76 76 75 75 74 73 73 75 74 74 73 71 70 70 74 73 74 69 67 69 67 65 63 59 63 67 70 69 68 67 67 68 66 69 68 66 66 70 70 71 72 72 72 73
65 66 66 67 68 69 70 71 71 71 73 73 73 73 71 71 70 69 69 69 69 69 71 71 72 72 74 74 74 75 76 75 76 76 77 78 77 76 75 76 76 76 78 77 76 74 73 73 77 75 75 75 72 71 71 71 72 71 72 71 75 70 67 68 64 64 63 69 68 67 66 67 67 66 67 66 66 66 68 70 69 69 70 72 72
65 65 66 67 68 69 70 71 71 73 73 73 73 72 71 71 70 70 70 69 69 69 70 71 72 74 74 74 74 74 75 76 75 76 76 77 77 76 76 76 76 76 77 77 76 74 75 75 77 75 77 74 72 72 71 71 70 69 74 70 70 69 70 68 66 63 65 64 66 66 68 67 67 66 69 66 65 66 67 70 67 67 69 70 72
65 65 66 67 68 69 71 71 71 73 73 73 72 72 72 71 70 70 70 70 70 70 71 74 73 75 73 74 74 74 74 75 76 75 76 76 78 77 76 76 76 74 78 78 76 75 74 74 75 75 75 76 76 73 73 73 71 71 71 69 70 68 67 68 69 70 70 64 65 65 67 68 67 68 68 67 66 68 69 69 71 72 74 76 74
65 66 66 67 68 70 70 71 71 72 73 73 72 71 72 72 70 70 70 70 71 72 72 72 73 74 73 73 73 73 73 74 75 75 76 76 77 78 76 76 75 75 77 77 76 75 75 75 74 75 76 75 75 75 74 74 73 73 70 70 69 70 69 68 66 67 65 64 62 63 65 66 67 69 69 67 68 69 68 69 69 68 70 73 74
65 66 67 68 69 69 70 70 71 72 73 73 72 71 71 71 70 70 70 70 71 72 71 72 72 73 73 72 73 73 73 74 75 76 75 76 77 78 77 76 76 77 78 77 76 74 73 73 74 76 76 76 76 76 76 75 75 74 71 71 68 67 66 65 66 66 64 65 65 64 64 67 66 66 69 68 72 69 69 70 69 68 73 73 74